This demonstration page uses our WeatherBlox Daily Observations layout. Learn more.

Left ArrowRight Arrow

39.08367, -84.50855

Hourly Observations for May 13, 2019

Temp ( °F °C ) Dew Point ( °F °C ) Humidity (%) Winds ( mph kmh ) Pressure ( in mb ) Visibility ( mi km ) Precip ( " mm )
12:10 am 00:10 Cloudy 52 11.1 48 8.9 86 86 WSW 12 19 29.80 1009 10 16 N/A
12:53 am 00:53 Cloudy 51 10.6 48 8.9 89 89 W 9 15 29.79 1009 10 16 N/A
1:53 am 01:53 Cloudy 51 10.6 47 8.3 86 86 W 8 13 29.79 1009 10 16 N/A
2:53 am 02:53 Cloudy 51 10.6 47 8.3 86 86 W 10 17 29.78 1008 10 16 N/A
3:09 am 03:09 Cloudy 50 10 46 7.8 86 86 WSW 13 20 29.78 1008 10 16 N/A
3:53 am 03:53 Cloudy 50 10 45 7.2 83 83 WSW 12 19 29.77 1008 10 16 N/A
4:53 am 04:53 Cloudy 50 10 46 7.8 86 86 WSW 9 15 29.79 1009 10 16 N/A
5:53 am 05:53 Cloudy 50 10 45 7.2 83 83 WSW 7 11 29.80 1009 10 16 N/A
6:53 am 06:53 Cloudy 50 10 46 7.8 86 86 WSW 12 19 29.82 1010 10 16 N/A
7:53 am 07:53 Cloudy 50 10 46 7.8 86 86 SW 9 15 29.84 1011 10 16 N/A
8:53 am 08:53 Cloudy with Light Rain 50 10 46 7.8 86 86 WSW 15 24 29.86 1011 10 16 N/A
9:53 am 09:53 Cloudy 51 10.6 45 7.2 80 80 WSW 13 20 29.87 1012 10 16 N/A
10:53 am 10:53 Cloudy 51 10.6 45 7.2 80 80 WSW 13 20 29.89 1012 10 16 N/A
11:53 am 11:53 Cloudy 52 11.1 45 7.2 77 77 W 10 17 29.91 1013 10 16 N/A
12:53 pm 12:53 Cloudy 55 12.8 46 7.8 72 72 W 12 19 29.91 1013 10 16 N/A
1:10 pm 13:10 Cloudy 54 12.2 44 6.7 69 69 W 12 19 29.91 1013 10 16 N/A
1:17 pm 13:17 Cloudy 53 11.7 44 6.7 72 72 W 12 19 29.91 1013 10 16 N/A
1:50 pm 13:50 Cloudy 54 12 45 7 72 72 W 9 15 29.92 1013 10 16 N/A
1:53 pm 13:53 Cloudy 53 11.7 43 6.1 69 69 W 13 20 29.92 1013 10 16 N/A
2:53 pm 14:53 Cloudy 53 11.7 44 6.7 72 72 W 8 13 29.92 1013 10 16 N/A
3:53 pm 15:53 Cloudy 54 12.2 44 6.7 69 69 NW 7 11 29.92 1013 10 16 N/A
4:53 pm 16:53 Cloudy 56 13.3 43 6.1 62 62 W 9 15 29.92 1013 10 16 N/A
5:53 pm 17:53 Cloudy 55 12.8 44 6.7 67 67 WNW 9 15 29.94 1014 10 16 N/A
6:53 pm 18:53 Cloudy 55 12.8 44 6.7 67 67 W 8 13 29.95 1014 10 16 N/A
7:53 pm 19:53 Cloudy 55 12.8 44 6.7 67 67 VRB 7 11 29.96 1015 10 16 N/A
8:53 pm 20:53 Cloudy 54 12.2 45 7.2 72 72 W 3 6 29.98 1015 10 16 N/A
9:53 pm 21:53 Cloudy 53 11.7 46 7.8 77 77 W 5 7 29.99 1016 10 16 N/A
10:53 pm 22:53 Cloudy 53 11.7 46 7.8 77 77 VRB 5 7 30.01 1016 10 16 N/A
11:53 pm 23:53 Cloudy 53 11.7 46 7.8 77 77 W 5 7 30.01 1016 10 16 N/A

Powered by AerisWeather